| time (UTC) | temp F | wind direction | speed MPH | gust MPH | rain 1hr in | rain 24hr in | rain mn in | humidity % | barometer mb |
| 20260508001141 | 58 | 0.0 | 0.0 | 0.00 | 0.00 | 0.00 | 100 | 990.8 | |
| 20260508000141 | 58 | 0.0 | 0.0 | 0.00 | 0.00 | 0.00 | 100 | 990.8 | |
| 20260507235141 | 58 | 0.0 | 0.0 | 0.00 | 0.00 | 0.00 | 100 | 990.7 | |
| 20260507234141 | 58 | 0.0 | 0.0 | 0.00 | 0.00 | 0.00 | 100 | 990.9 | |
| 20260507233141 | 59 | 0.0 | 0.0 | 0.00 | 0.00 | 0.00 | 100 | 990.9 | |
| 20260507232141 | 59 | 0.0 | 0.0 | 0.00 | 0.00 | 0.00 | 100 | 990.8 | |
| 20260507231141 | 59 | 0.0 | 0.0 | 0.00 | 0.00 | 0.00 | 100 | 990.6 | |
| 20260507230141 | 59 | 0.0 | 0.0 | 0.00 | 0.00 | 0.00 | 100 | 990.6 | |
| 20260507224141 | 60 | 0.0 | 0.0 | 0.00 | 0.00 | 0.00 | 100 | 990.6 | |
| 20260507221141 | 61 | 0.0 | 0.0 | 0.00 | 0.00 | 0.00 | 100 | 990.6 | |
| 20260507220140 | 62 | 0.0 | 0.0 | 0.00 | 0.00 | 0.00 | 97 | 990.6 | |
| 20260507215140 | 62 | 0.0 | 0.0 | 0.00 | 0.00 | 0.00 | 96 | 990.5 | |
| 20260507214140 | 62 | 0.0 | 0.0 | 0.00 | 0.00 | 0.00 | 93 | 990.5 | |
| 20260507213141 | 64 | 0.0 | 0.0 | 0.00 | 0.00 | 0.00 | 86 | 990.4 | |
| 20260507212141 | 65 | 0.0 | 0.0 | 0.00 | 0.00 | 0.00 | 84 | 990.4 | |
| 20260507211141 | 65 | 0.0 | 0.0 | 0.00 | 0.00 | 0.00 | 80 | 990.3 | |
| 20260507210142 | 66 | 0.0 | 0.0 | 0.00 | 0.00 | 0.00 | 77 | 990.3 | |
| 20260507205142 | 66 | 0.0 | 0.0 | 0.00 | 0.00 | 0.00 | 73 | 990.3 | |
| 20260507204140 | 66 | 0.0 | 0.0 | 0.00 | 0.00 | 0.00 | 72 | 990.4 | |
| 20260507203142 | 66 | 0.0 | 0.0 | 0.00 | 0.00 | 0.00 | 71 | 990.3 | |
| 20260507195138 | 68 | 0.0 | 0.0 | 0.00 | 0.00 | 0.00 | 62 | 990.2 | |
| 20260507194138 | 68 | 0.0 | 0.0 | 0.00 | 0.00 | 0.00 | 62 | 990.1 | |
| 20260507193139 | 69 | 0.0 | 0.0 | 0.00 | 0.00 | 0.00 | 61 | 990.2 | |
| 20260507192138 | 69 | 0.0 | 0.0 | 0.00 | 0.00 | 0.00 | 61 | 990.2 | |
| 20260507191138 | 69 | 0.0 | 0.0 | 0.00 | 0.00 | 0.00 | 62 | 990.2 | |
| 20260507190138 | 69 | 0.0 | 0.0 | 0.00 | 0.00 | 0.00 | 68 | 990.2 | |
| 20260507184139 | 70 | 0.0 | 0.0 | 0.00 | 0.00 | 0.00 | 69 | 989.8 | |
| 20260507183138 | 70 | 0.0 | 0.0 | 0.00 | 0.00 | 0.00 | 67 | 989.9 | |
| 20260507182140 | 70 | 0.0 | 0.0 | 0.00 | 0.00 | 0.00 | 68 | 989.9 | |
| 20260507180138 | 71 | 0.0 | 0.0 | 0.00 | 0.00 | 0.00 | 65 | 989.6 | |
| 20260507175140 | 71 | 0.0 | 0.0 | 0.00 | 0.00 | 0.00 | 64 | 989.6 | |
| 20260507174138 | 71 | 0.0 | 0.0 | 0.00 | 0.00 | 0.00 | 64 | 989.5 | |
| 20260507173138 | 71 | 0.0 | 0.0 | 0.00 | 0.00 | 0.00 | 64 | 989.4 | |
| 20260507172138 | 71 | 0.0 | 0.0 | 0.00 | 0.00 | 0.00 | 64 | 989.4 | |
| 20260507171138 | 71 | 0.0 | 0.0 | 0.00 | 0.00 | 0.00 | 64 | 989.5 | |
| 20260507170139 | 71 | 0.0 | 0.0 | 0.00 | 0.00 | 0.00 | 63 | 989.4 | |
| 20260507165138 | 72 | 0.0 | 0.0 | 0.00 | 0.00 | 0.00 | 62 | 989.5 | |
| 20260507164137 | 71 | 0.0 | 0.0 | 0.00 | 0.00 | 0.00 | 63 | 989.3 | |
| 20260507163138 | 72 | 0.0 | 0.0 | 0.00 | 0.00 | 0.00 | 62 | 989.4 | |
| 20260507161137 | 74 | 0.0 | 0.0 | 0.00 | 0.00 | 0.00 | 60 | 989.2 | |
| 20260507154137 | 74 | 0.0 | 0.0 | 0.00 | 0.00 | 0.00 | 56 | 989.1 | |
| 20260507153137 | 75 | 0.0 | 0.0 | 0.00 | 0.00 | 0.00 | 53 | 989.2 | |
| 20260507152137 | 76 | 0.0 | 0.0 | 0.00 | 0.00 | 0.00 | 44 | 989.1 | |
| 20260507150137 | 76 | 0.0 | 0.0 | 0.00 | 0.00 | 0.00 | 43 | 989.2 | |
| 20260507145137 | 77 | 0.0 | 0.0 | 0.00 | 0.00 | 0.00 | 42 | 989.3 | |
| 20260507144140 | 78 | 0.0 | 0.0 | 0.00 | 0.00 | 0.00 | 40 | 989.2 | |
| 20260507143137 | 79 | 0.0 | 0.0 | 0.00 | 0.00 | 0.00 | 39 | 989.3 | |
| 20260507141137 | 81 | 0.0 | 0.0 | 0.00 | 0.00 | 0.00 | 36 | 989.3 | |
| 20260507140138 | 83 | 0.0 | 0.0 | 0.00 | 0.00 | 0.00 | 34 | 989.3 | |
| 20260507135137 | 85 | 0.0 | 0.0 | 0.00 | 0.00 | 0.00 | 33 | 989.5 | |
| 20260507134136 | 88 | 0.0 | 0.0 | 0.00 | 0.00 | 0.00 | 40 | 989.3 | |
| 20260507132137 | 87 | 0.0 | 0.0 | 0.00 | 0.00 | 0.00 | 39 | 989.4 | |
| 20260507131136 | 88 | 0.0 | 0.0 | 0.00 | 0.00 | 0.00 | 38 | 989.5 | |
| 20260507130136 | 89 | 0.0 | 0.0 | 0.00 | 0.00 | 0.00 | 37 | 989.5 | |
| 20260507125137 | 86 | 0.0 | 0.0 | 0.00 | 0.00 | 0.00 | 39 | 989.5 | |
| 20260507124136 | 90 | 0.0 | 0.0 | 0.00 | 0.00 | 0.00 | 36 | 989.6 | |
| 20260507123137 | 84 | 0.0 | 0.0 | 0.00 | 0.00 | 0.00 | 41 | 989.8 | |
| 20260507122137 | 84 | 0.0 | 0.0 | 0.00 | 0.00 | 0.00 | 39 | 989.9 | |
| 20260507121137 | 84 | 0.0 | 0.0 | 0.00 | 0.00 | 0.00 | 39 | 990.0 | |
| 20260507120136 | 86 | 0.0 | 0.0 | 0.00 | 0.00 | 0.00 | 37 | 990.1 | |
| 20260507115136 | 89 | 0.0 | 0.0 | 0.00 | 0.00 | 0.00 | 34 | 990.2 | |
| 20260507114136 | 90 | 0.0 | 0.0 | 0.00 | 0.00 | 0.00 | 32 | 990.4 | |
| 20260507113136 | 88 | 0.0 | 0.0 | 0.00 | 0.00 | 0.00 | 34 | 990.4 | |
| 20260507110136 | 85 | 0.0 | 0.0 | 0.00 | 0.00 | 0.00 | 35 | 990.8 | |
| 20260507104136 | 83 | 0.0 | 0.0 | 0.00 | 0.00 | 0.00 | 39 | 991.0 | |
| 20260507103136 | 81 | 0.0 | 0.0 | 0.00 | 0.00 | 0.00 | 41 | 990.9 | |
| 20260507101136 | 78 | 0.0 | 0.0 | 0.00 | 0.00 | 0.00 | 44 | 991.2 | |
| 20260507100136 | 77 | 0.0 | 0.0 | 0.00 | 0.00 | 0.00 | 45 | 991.2 | |
| 20260507094137 | 75 | 0.0 | 0.0 | 0.00 | 0.00 | 0.00 | 47 | 991.4 | |
| 20260507093136 | 74 | 0.0 | 0.0 | 0.00 | 0.00 | 0.00 | 48 | 991.5 | |
| 20260507092136 | 72 | 0.0 | 0.0 | 0.00 | 0.00 | 0.00 | 50 | 991.6 | |
| 20260507091136 | 70 | 0.0 | 0.0 | 0.00 | 0.00 | 0.00 | 52 | 991.6 | |
| 20260507085136 | 70 | 0.0 | 0.0 | 0.00 | 0.00 | 0.00 | 52 | 991.8 | |
| 20260507083136 | 68 | 0.0 | 0.0 | 0.00 | 0.00 | 0.00 | 56 | 991.8 | |
| 20260507082136 | 67 | 0.0 | 0.0 | 0.00 | 0.00 | 0.00 | 58 | 991.9 | |
| 20260507081135 | 66 | 0.0 | 0.0 | 0.00 | 0.00 | 0.00 | 56 | 992.0 | |
| 20260507080136 | 65 | 0.0 | 0.0 | 0.00 | 0.00 | 0.00 | 56 | 991.9 | |
| 20260507075136 | 65 | 0.0 | 0.0 | 0.00 | 0.00 | 0.00 | 57 | 992.1 | |
| 20260507074136 | 64 | 0.0 | 0.0 | 0.00 | 0.00 | 0.00 | 58 | 992.0 | |
| 20260507073135 | 64 | 0.0 | 0.0 | 0.00 | 0.00 | 0.00 | 60 | 991.9 | |
| 20260507072135 | 62 | 0.0 | 0.0 | 0.00 | 0.00 | 0.00 | 62 | 992.0 | |
| 20260507071135 | 62 | 0.0 | 0.0 | 0.00 | 0.00 | 0.00 | 64 | 991.9 | |
| 20260507070136 | 61 | 0.0 | 0.0 | 0.00 | 0.00 | 0.00 | 67 | 992.0 | |
| 20260507065135 | 60 | 0.0 | 0.0 | 0.00 | 0.00 | 0.00 | 71 | 992.1 | |
| 20260507064135 | 59 | 0.0 | 0.0 | 0.00 | 0.00 | 0.00 | 74 | 992.1 | |
| 20260507063136 | 59 | 0.0 | 0.0 | 0.00 | 0.00 | 0.00 | 76 | 992.2 | |
| 20260507061135 | 58 | 0.0 | 0.0 | 0.00 | 0.00 | 0.00 | 75 | 992.1 | |
| 20260507060135 | 57 | 0.0 | 0.0 | 0.00 | 0.00 | 0.00 | 76 | 992.3 | |
| 20260507055135 | 56 | 0.0 | 0.0 | 0.00 | 0.00 | 0.00 | 78 | 992.1 | |
| 20260507054135 | 55 | 0.0 | 0.0 | 0.00 | 0.00 | 0.00 | 80 | 992.1 | |
| 20260507053135 | 54 | 0.0 | 0.0 | 0.00 | 0.00 | 0.00 | 84 | 992.0 | |
| 20260507052135 | 54 | 0.0 | 0.0 | 0.00 | 0.00 | 0.00 | 84 | 992.0 | |
| 20260507051135 | 53 | 0.0 | 0.0 | 0.00 | 0.00 | 0.00 | 86 | 992.0 | |
| 20260507050135 | 52 | 0.0 | 0.0 | 0.00 | 0.00 | 0.00 | 89 | 991.8 | |
| 20260507045135 | 52 | 0.0 | 0.0 | 0.00 | 0.00 | 0.00 | 88 | 991.8 | |
| 20260507044136 | 51 | 0.0 | 0.0 | 0.00 | 0.00 | 0.00 | 91 | 991.7 | |
| 20260507043135 | 51 | 0.0 | 0.0 | 0.00 | 0.00 | 0.00 | 94 | 991.6 | |
| 20260507042136 | 50 | 0.0 | 0.0 | 0.00 | 0.00 | 0.00 | 95 | 991.6 | |
| 20260507041135 | 50 | 0.0 | 0.0 | 0.00 | 0.00 | 0.00 | 99 | 991.4 | |
| 20260507040135 | 49 | 0.0 | 0.0 | 0.00 | 0.00 | 0.00 | 99 | 991.4 | |
| 20260507035135 | 49 | 0.0 | 0.0 | 0.00 | 0.00 | 0.00 | 99 | 991.1 | |
| 20260507033135 | 49 | 0.0 | 0.0 | 0.00 | 0.00 | 0.00 | 98 | 991.2 | |
| 20260507032135 | 49 | 0.0 | 0.0 | 0.00 | 0.00 | 0.00 | 98 | 990.9 | |
| 20260507031136 | 49 | 0.0 | 0.0 | 0.00 | 0.00 | 0.00 | 98 | 990.9 | |
| 20260507030135 | 49 | 0.0 | 0.0 | 0.00 | 0.00 | 0.00 | 98 | 991.0 | |
| 20260507025135 | 49 | 0.0 | 0.0 | 0.00 | 0.00 | 0.00 | 98 | 990.8 | |
| 20260507024135 | 50 | 0.0 | 0.0 | 0.00 | 0.00 | 0.00 | 97 | 990.7 | |
| 20260507023135 | 50 | 0.0 | 0.0 | 0.00 | 0.00 | 0.00 | 95 | 990.6 | |
| 20260507021135 | 50 | 0.0 | 0.0 | 0.00 | 0.00 | 0.00 | 96 | 990.5 | |
| 20260507020135 | 50 | 0.0 | 0.0 | 0.00 | 0.00 | 0.00 | 98 | 990.6 | |
| 20260507015135 | 50 | 0.0 | 0.0 | 0.00 | 0.00 | 0.00 | 96 | 990.4 | |
| 20260507014134 | 50 | 0.0 | 0.0 | 0.00 | 0.00 | 0.00 | 95 | 990.6 | |
| 20260507013135 | 50 | 0.0 | 0.0 | 0.00 | 0.00 | 0.00 | 94 | 990.5 | |
| 20260507012134 | 50 | 0.0 | 0.0 | 0.00 | 0.00 | 0.00 | 95 | 990.4 | |
| 20260507011134 | 51 | 0.0 | 0.0 | 0.00 | 0.00 | 0.00 | 93 | 990.2 | |
| 20260507010135 | 51 | 0.0 | 0.0 | 0.00 | 0.00 | 0.00 | 91 | 990.4 | |
| 20260507005134 | 51 | 0.0 | 0.0 | 0.00 | 0.00 | 0.00 | 90 | 990.5 | |
| 20260507003135 | 51 | 0.0 | 0.0 | 0.00 | 0.00 | 0.00 | 89 | 990.1 |